258  
ASHW40 PHFO 211033  
RWRHI  
 
WEATHER ROUNDUP FOR HAWAII  
NATIONAL WEATHER SERVICE HONOLULU HI  
1200 AM HST FRI JUL 21 2017  
 
THIS IS AN AUTOMATED REPORT THAT HAS NOT BEEN QUALITY CONTROLLED.  
 
NOTE..."FAIR" INDICATES FEW OR NO CLOUDS BELOW 12,000 FEET WITH NO  
SIGNIFICANT WEATHER AND/OR S TO VISIBILITY
.  
 
* - THESE SITES REPORT LIMITED FIELDS  
# - BUOY DATA PROVIDED BY PACIFIC ISLANDS OCEAN OBSERVING SYSTEM.  
 
HIZ001>004-211100-  
KAUAI-NIIHAU-  
 
CITY SKY/WX TMP DP RH WIND PRES REMARKS
 
LIHUE APT MOCLDY 80 70 71 E12 30.10F  
PORT ALLEN* N/A 77 N/A N/A NE13G20 N/A  
POIPU* N/A 79 N/A N/A NE8G15 N/A  
PRINCEVILLE* N/A 73 N/A N/A S5 N/A  
KOKOLE POINT* NOT AVBL  
MOLOAA DAIRY* N/A 77 68 73 E3G12 N/A  
WAIMEA HTS* NOT AVBL  
PUU OPAE* NOT AVBL  
PUU LUA* NOT AVBL  
MAKAHA RIDGE* N/A 72 57 60 SW2G12 N/A  

 
 
HIZ005>011-211100-  
OAHU-  
 
CITY SKY/WX TMP DP RH WIND PRES REMARKS
 
HONOLULU PTCLDY 78 66 66 NE15G22 30.06F  
KALAELOA CLEAR 78 64 61 E8 30.07F  
KANEOHE MCB CLOUDY 79 69 70 E13G21 30.06  
WHEELER FIELD FAIR 75 64 69 NE6 30.07F  
BELLOWS* N/A N/A N/A N/A NE22 N/A  
KAHUKU* N/A N/A N/A N/A NE12G22 N/A  
WHEELER* NOT AVBL  
WAIANAE HARBOR NOT AVBL  
DILLINGHAM* N/A 91 84 79 W2 N/A HX 118  
KAHUKU TRN* N/A 88 79 74 W10G23 N/A HX 102  
KAWAILOA* N/A 72 66 83 SE3G16 N/A  
KII* N/A 79 70 73 CALM N/A  
MAKUA RANGE* N/A 79 63 57 W6G18 N/A  
OAHU FOREST NW NOT AVBL  
SCHOFIELD BRK* N/A 72 64 78 MISG N/A  
SCHOFIELD S* NOT AVBL  
WAIANAE VLY* NOT AVBL  
KUAOKALA* NOT AVBL  
HONOULIUULI* NOT AVBL  
MOKUOLOE IS* NOT AVBL  
PALEHUA* NOT AVBL  
WAIAWA PHB* NOT AVBL  

 
 
HIZ012>013-211100-  
MOLOKAI-  
 
CITY SKY/WX TMP DP RH WIND PRES REMARKS
 
MOLOKAI AIRPT CLEAR 80 65 59 NE14G25 30.07F  
KALAUPAPA NOT AVBL  
MAKAPULAPAI* N/A 79 68 69 E20G30 N/A  
MOLOKAI 1* NOT AVBL  
PUU ALII* N/A 59 57 93 N3G16 N/A  

 
 
HIZ016-211100-  
KAHOOLAWE-  
 
CITY SKY/WX TMP DP RH WIND PRES REMARKS
 
KAHOOLAWE* NOT AVBL  
HAKIOAWA* N/A 73 67 81 MISG 30.46F  
HONOKANAIA* N/A 77 65 66 NE8G23 N/A  
KANELOA* N/A 75 68 78 E16G30 30.13R  
KEALIALALO* NOT AVBL  
LUA MAKIKA* NOT AVBL  

 
 
HIZ014>015-211100-  
LANAI-  
 
CITY SKY/WX TMP DP RH WIND PRES REMARKS
 
LANAI CITY FAIR 71 64 78 E9 30.11F  
LANAI 1* NOT AVBL  

 
 
HIZ017>028-211100-  
MAUI-  
 
CITY SKY/WX TMP DP RH WIND PRES REMARKS
 
KAHULUI CLEAR 76 67 73 NE9 30.07F  
KAPALUA-W MAUI NOT AVBL  
HANA AIRPORT PTCLDY 72 68 88 CALM 30.11F  
HANA* N/A 75 N/A N/A S3 N/A  
HALEAKALA SUMM N/A 45 37 76 E26 N/A  
MAALAEA BAY* N/A 77 N/A N/A N20G30 N/A  
HALEAKALA* NOT AVBL  
KAUPO GAP* NOT AVBL  
KULA 1* N/A 50 46 85 NE3 N/A  

 
 
HIZ023>026-211100-  
BIG ISLAND OF HAWAII COAST AND LOWER SLOPES-  
 
CITY SKY/WX TMP DP RH WIND PRES REMARKS
 
KAILUA KONA PTCLDY 78 63 59 CALM 30.00F  
HILO CLOUDY 74 70 87 W5 30.07F  
HONOKAA* N/A 68 N/A N/A VRB1 N/A  
KAWAIHAE MWT* N/A 81 N/A N/A NE16G26 N/A  
KAWAIHAE* N/A 82 N/A N/A E16 29.99F  
SOUTH POINT* N/A 72 N/A N/A N10 N/A  
UPOLU AIRPORT* NOT AVBL  
KAMUELA* NOT AVBL  
HAKALAU* N/A 51 49 91 SW8 N/A  
KALOKO-HONOKO* N/A 73 70 88 VRB2 29.99  
PALI 2* N/A 66 57 72 S16G26 N/A  
KEALAKOMO* N/A 77 63 61 N14G30 N/A  
KAUPULEHU* NOT AVBL  
KAPAPALA* N/A 64 61 89 N5 N/A  
LOWER KAHUKU* N/A 61 57 88 N1 N/A  
PUHE CS* N/A 81 59 47 NE13G25 N/A  
PUHO CS* N/A 73 73 100 E2G8 N/A  
PTA KEAMUKU* NOT AVBL  
WAIKOLOA* NOT AVBL  

 
 
HIZ027>028-211100-  
BIG ISLAND OF HAWAII INTERIOR AND SUMMMITS-  
 
CITY SKY/WX TMP DP RH WIND PRES REMARKS
 
BRADSHAW FIELD CLOUDY 52 47 82 CALM 30.35F  
MK VISITOR CEN N/A 52 23 32 E13 N/A  
MAUNA KEA* N/A 36 -13 12 E13 N/A WCI 27  
MAUNA LOA* N/A 48 -17 6 MISG N/A  
MAUNA LOA 1* NOT AVBL  
PTA KIPUKA* N/A 54 52 94 E3 N/A  
PTA RANGE 17* N/A 75 64 69 E13G24 N/A  
PTA WEST* N/A 61 48 63 SE12G24 N/A  
NENE CABIN* N/A 52 43 71 NE6G12 N/A  
AHUMOA* NOT AVBL  
PTA PORTABLE* NOT AVBL  
PUU MALI* N/A 61 37 41 E14G33 N/A  

 
 
HIC003-211100-  
NORTHWEST ISLANDS-  
 
CITY SKY/WX TMP DP RH WIND PRES REMARKS
 
MIDWAY ISLAND MOCLDY 79 75 89 SE14 30.10R  
MIDWAY NOS* N/A 79 N/A N/A MISG 30.09R  
FRENCH FRIGATE NOT AVBL  

 
 
PHZ110>124-180-211100-  
BUOY REPORTS  
 
STATION/POSITION TIME TEMP WIND PRES WAVE SWELL
 
AIR SEA DIR/SP/G HT/PER HT/DIR  
(UTC) (F) (DEG/KT/KT) (MB) (FT/S) (FT/D)  
BUOY 51001 1010 79 81 80/ 14/ 17 1020.1  
BUOY 51101 0950 79 81 70/ 14/ 17 1020.6F 7/ 8 5/110  
BUOY 51100 NOT AVBL  
BUOY 51002 1010 79 80 60/ 17/ 21 1015.4  
BUOY 51003 0950 81 81 40/ 10/ 14 1017.0F 6/ 8 5/ 80  
BUOY 51004 0950 79 60/ 16/ 19 1015.1F 8/ 9 5/ 70  
WAIMEA BAY# 1002 78 N/A 4/ 7  
MOKAPU POINT# 0934 80 N/A 6/ 7 2/100  
LANAI# NOT AVBL  
BARBERS PT 2# NOT AVBL  
PAUWELA# 1009 80 N/A 6/11 2/100  
HILO# 0957 80 N/A 8/11 3/100  
KANEOHE BAY# 0955 79 N/A 6/ 8 2/ 80  
KANEOHE BAY 2# NOT AVBL  
HANALEI# 0952 81 N/A 5/ 8 2/ 90  
KAHULUI HARBOR 1000 78 80 40/ 9/ 11 1018.5  
HONOLULU HARBOR 1000 79 81 60/ 8/ 12 1018.7  
PEARL HARBOR# 1000 80 N/A 3/ 6 2/160  
KILO NALU NOT AVBL  
HILO HARBOR 1000 76 79 30/ 12/ 14 1017.8  
MOKUOLOE 0936 80 82 70/ 10/ 14 1018.9F  
NAWILIWILI 1000 79 60/ 7/ 10 1019.1  
WHOTS BUOY NOT AVBL  
BUOY 51028 NOT AVBL  

 
   
.....................KEY.....................................
 
 
SKY/WX - SKY CONDITIONS/PRESENT WEATHER  
TMP - TEMPERATURE IN FAHRENHEIT  
DWPT - DEWPOINT IN FAHRENHEIT  
RH - RELATIVE HUMIDITY IN PERCENT  
WIND - DIRECTION AND SPEED /MPH FOR ISLANDS...KTS FOR BUOYS/  
PRES - MEAN SEA LEVEL PRESSURE IN INCHES OF HG  
VSB - VISIBILITY IN MILES  
HX - HEAT INDEX  
WCI - WIND CHILL INDEX  
VRB - VARIABLE WIND DIRECTION  
N/A - NOT AVAILABLE  
 
 
CLICK HERE TO GO TO PREVIOUS BULLETINS.

The Nexlab HI Page Main Text Page